QPF
0.00 0.00 0.00 0.00 0.00 0.00 0.00 0.00 0.00 0.00 0.00 0.00 0.00 0.00 0.00 0.00 0.00 0.00 0.00 0.00 0.01 0.01 0.02 0.02 0.04 0.04 0.04 0.03 0.02 0.01 0.00 0.00 0.01 0.01 0.03 0.04 0.05 0.05 0.04 0.03 0.02 0.02 0.04 0.10
0.00 0.00 0.00 0.00 0.00 0.00 0.01 0.01 0.00 0.00 0.00 0.00 0.00 0.00 0.00 0.00 0.00 0.00 0.00 0.00 0.00 0.01 0.01 0.02 0.03 0.03 0.04 0.03 0.02 0.01 0.00 0.01 0.03 0.06 0.11 0.16 0.17 0.15 0.13 0.11 0.07 0.06 0.07 0.12
0.00 0.00 0.00 0.00 0.00 0.00 0.00 0.00 0.00 0.00 0.00 0.00 0.00 0.00 0.00 0.00 0.00 0.00 0.00 0.00 0.00 0.00 0.01 0.01 0.02 0.02 0.03 0.03 0.02 0.01 0.00 0.02 0.08 0.16 0.27 0.33 0.36 0.36 0.32 0.25 0.17 0.12 0.11 0.14
0.00 0.00 0.00 0.00 0.00 0.00 0.00 0.00 0.00 0.00 0.00 0.00 0.00 0.00 0.00 0.00 0.00 0.00 0.00 0.00 0.00 0.00 0.00 0.01 0.01 0.01 0.02 0.03 0.02 0.01 0.02 0.06 0.15 0.27 0.40 0.46 0.53 0.56 0.47 0.34 0.21 0.15 0.11 0.13
0.00 0.00 0.00 0.00 0.00 0.00 0.00 0.00 0.00 0.00 0.00 0.00 0.00 0.00 0.00 0.00 0.00 0.00 0.00 0.00 0.00 0.00 0.00 0.00 0.00 0.01 0.01 0.01 0.02 0.02 0.06 0.13 0.24 0.33 0.44 0.57 0.63 0.59 0.48 0.35 0.24 0.16 0.10 0.08
0.00 0.00 0.00 0.00 0.00 0.00 0.00 0.00 0.00 0.00 0.01 0.01 0.01 0.01 0.01 0.00 0.00 0.00 0.00 0.00 0.00 0.00 0.00 0.01 0.01 0.02 0.01 0.02 0.02 0.04 0.07 0.16 0.28 0.37 0.45 0.52 0.57 0.55 0.44 0.33 0.23 0.15 0.09 0.07
0.00 0.00 0.00 0.00 0.00 0.00 0.00 0.01 0.01 0.01 0.02 0.02 0.01 0.03 0.02 0.01 0.00 0.00 0.00 0.00 0.00 0.00 0.00 0.02 0.03 0.05 0.06 0.07 0.09 0.13 0.16 0.23 0.30 0.35 0.38 0.41 0.43 0.41 0.36 0.30 0.20 0.12 0.07 0.05
0.00 0.00 0.00 0.00 0.00 0.00 0.00 0.01 0.01 0.02 0.02 0.03 0.04 0.06 0.05 0.02 0.01 0.01 0.00 0.00 0.00 0.01 0.01 0.02 0.05 0.08 0.12 0.13 0.14 0.13 0.15 0.19 0.21 0.24 0.26 0.27 0.26 0.25 0.22 0.18 0.11 0.07 0.05 0.03
0.00 0.00 0.00 0.00 0.00 0.00 0.00 0.00 0.01 0.03 0.03 0.04 0.06 0.08 0.06 0.02 0.01 0.01 0.01 0.01 0.01 0.03 0.04 0.04 0.06 0.10 0.17 0.18 0.15 0.14 0.12 0.14 0.16 0.16 0.16 0.18 0.17 0.15 0.12 0.09 0.06 0.04 0.03 0.01
0.00 0.00 0.00 0.00 0.00 0.00 0.00 0.00 0.02 0.04 0.05 0.06 0.08 0.08 0.08 0.05 0.03 0.02 0.03 0.03 0.04 0.06 0.07 0.07 0.09 0.10 0.15 0.23 0.22 0.18 0.13 0.13 0.14 0.16 0.17 0.16 0.14 0.12 0.09 0.06 0.05 0.03 0.01 0.00
0.00 0.00 0.00 0.00 0.00 0.01 0.00 0.01 0.02 0.04 0.06 0.09 0.12 0.12 0.10 0.08 0.07 0.07 0.08 0.09 0.09 0.10 0.10 0.10 0.14 0.14 0.13 0.18 0.20 0.21 0.17 0.15 0.14 0.15 0.15 0.13 0.11 0.09 0.07 0.05 0.03 0.01 0.00 0.00
0.00 0.00 0.00 0.00 0.00 0.00 0.01 0.01 0.02 0.04 0.05 0.08 0.19 0.21 0.15 0.14 0.15 0.14 0.14 0.12 0.15 0.18 0.16 0.15 0.21 0.23 0.18 0.16 0.14 0.15 0.14 0.14 0.14 0.14 0.13 0.12 0.09 0.07 0.05 0.04 0.02 0.01 0.00 0.00
0.00 0.00 0.00 0.00 0.00 0.01 0.01 0.02 0.03 0.04 0.06 0.11 0.20 0.25 0.22 0.20 0.16 0.14 0.19 0.21 0.23 0.24 0.23 0.21 0.19 0.23 0.25 0.22 0.13 0.14 0.14 0.13 0.13 0.13 0.12 0.11 0.09 0.08 0.06 0.04 0.02 0.01 0.01 0.01
0.00 0.00 0.00 0.00 0.01 0.02 0.02 0.02 0.03 0.04 0.09 0.16 0.22 0.24 0.21 0.19 0.20 0.19 0.21 0.26 0.25 0.17 0.15 0.16 0.15 0.18 0.20 0.18 0.15 0.13 0.14 0.12 0.12 0.14 0.13 0.10 0.08 0.07 0.06 0.05 0.03 0.02 0.02 0.01
0.00 0.00 0.00 0.00 0.01 0.02 0.02 0.02 0.02 0.03 0.07 0.15 0.15 0.14 0.16 0.18 0.17 0.17 0.14 0.14 0.14 0.12 0.11 0.11 0.10 0.11 0.11 0.11 0.13 0.13 0.14 0.13 0.13 0.13 0.12 0.09 0.07 0.05 0.05 0.04 0.03 0.02 0.02 0.02
0.00 0.00 0.00 0.00 0.00 0.01 0.02 0.02 0.03 0.04 0.06 0.09 0.10 0.12 0.13 0.10 0.09 0.09 0.10 0.11 0.10 0.08 0.06 0.06 0.05 0.04 0.03 0.03 0.05 0.06 0.07 0.06 0.07 0.06 0.06 0.06 0.05 0.05 0.05 0.04 0.02 0.02 0.02 0.02
0.00 0.00 0.00 0.00 0.00 0.00 0.01 0.02 0.03 0.04 0.05 0.06 0.06 0.06 0.04 0.03 0.03 0.05 0.06 0.06 0.06 0.04 0.03 0.02 0.01 0.01 0.01 0.00 0.00 0.00 0.01 0.01 0.01 0.01 0.01 0.01 0.02 0.02 0.02 0.02 0.02 0.01 0.01 0.02
0.00 0.00 0.00 0.00 0.00 0.00 0.00 0.00 0.01 0.02 0.02 0.03 0.03 0.03 0.03 0.02 0.02 0.02 0.02 0.03 0.04 0.02 0.01 0.00 0.00 0.00 0.00 0.00 0.00 0.00 0.00 0.00 0.00 0.00 0.00 0.00 0.00 0.00 0.00 0.01 0.01 0.01 0.02 0.02
0.00 0.00 0.00 0.00 0.00 0.00 0.00 0.00 0.00 0.01 0.01 0.01 0.02 0.01 0.01 0.01 0.00 0.00 0.00 0.00 0.00 0.00 0.00 0.00 0.00 0.00 0.00 0.00 0.00 0.00 0.00 0.00 0.00 0.00 0.00 0.00 0.00 0.00 0.00 0.00 0.00 0.00 0.01 0.01
0.00 0.00 0.00 0.00 0.00 0.00 0.00 0.00 0.00 0.00 0.00 0.00 0.01 0.01 0.00 0.00 0.00 0.00 0.00 0.00 0.00 0.00 0.00 0.00 0.00 0.00 0.00 0.00 0.00 0.00 0.00 0.00 0.00 0.00 0.00 0.00 0.00 0.00 0.00 0.00 0.00 0.00 0.00 0.00
0.00 0.00 0.00 0.00 0.00 0.00 0.00 0.00 0.00 0.00 0.00 0.00 0.00 0.00 0.00 0.00 0.00 0.00 0.00 0.00 0.00 0.00 0.00 0.00 0.00 0.00 0.00 0.00 0.00 0.00 0.00 0.00 0.00 0.00 0.00 0.00 0.00 0.00 0.00 0.00 0.00 0.00 0.00 0.00
0.00 0.00 0.00 0.00 0.00 0.00 0.00 0.00 0.00 0.00 0.00 0.00 0.00 0.00 0.00 0.00 0.00 0.00 0.00 0.00 0.00 0.00 0.00 0.00 0.00 0.00 0.00 0.00 0.00 0.00 0.00 0.00 0.00 0.00 0.00 0.00 0.00 0.00 0.00 0.00 0.00 0.00 0.00 0.00
0.00 0.00 0.00 0.00 0.00 0.00 0.00 0.00 0.00 0.00 0.00 0.00 0.00 0.00 0.00 0.00 0.00 0.00 0.00 0.00 0.00 0.00 0.00 0.00 0.00 0.00 0.00 0.00 0.00 0.00 0.00 0.00 0.00 0.00 0.00 0.00 0.00 0.00 0.00 0.00 0.00 0.00 0.00 0.00
0.00 0.00 0.00 0.00 0.00 0.00 0.00 0.00 0.00 0.00 0.00 0.00 0.00 0.00 0.00 0.00 0.00 0.00 0.00 0.00 0.00 0.00 0.00 0.00 0.00 0.00 0.00 0.00 0.00 0.00 0.00 0.00 0.00 0.00 0.00 0.00 0.00 0.00 0.00 0.00 0.00 0.00 0.00 0.00
0.00 0.00 0.00 0.00 0.00 0.00 0.00 0.00 0.00 0.00 0.00 0.00 0.00 0.00 0.00 0.00 0.00 0.00 0.00 0.00 0.00 0.00 0.00 0.00 0.00 0.00 0.00 0.00 0.00 0.00 0.00 0.00 0.00 0.00 0.00 0.00 0.00 0.00 0.00 0.00 0.00 0.00 0.00 0.00
0.00 0.00 0.00 0.00 0.00 0.00 0.00 0.00 0.00 0.00 0.00 0.00 0.00 0.00 0.00 0.00 0.00 0.00 0.00 0.00 0.00 0.00 0.00 0.00 0.00 0.00 0.00 0.00 0.00 0.00 0.00 0.00 0.00 0.00 0.00 0.00 0.00 0.00 0.00 0.00 0.00 0.00 0.00 0.00
MSLP
1012.83 1013.52 1014.12 1014.57 1014.86 1015.00 1015.00 1014.93 1014.82 1014.72 1014.66 1014.62 1014.61 1014.59 1014.54 1014.43 1014.25 1013.98 1013.64 1013.23 1012.78 1012.30 1011.79 1011.28 1010.77 1010.28 1009.82 1009.43 1009.14 1008.96 1008.95 1009.09 1009.40 1009.86 1010.43 1011.06 1011.69 1012.27 1012.76 1013.13 1013.39 1013.54 1013.63 1013.69
1013.80 1014.48 1015.03 1015.43 1015.65 1015.71 1015.63 1015.48 1015.31 1015.14 1015.02 1014.95 1014.91 1014.88 1014.83 1014.72 1014.56 1014.31 1014.00 1013.62 1013.18 1012.69 1012.17 1011.61 1011.03 1010.44 1009.87 1009.35 1008.91 1008.61 1008.49 1008.57 1008.86 1009.33 1009.96 1010.68 1011.42 1012.12 1012.71 1013.17 1013.48 1013.65 1013.72 1013.74
1014.80 1015.43 1015.93 1016.25 1016.39 1016.36 1016.20 1015.97 1015.72 1015.49 1015.31 1015.18 1015.10 1015.03 1014.96 1014.84 1014.68 1014.45 1014.16 1013.80 1013.39 1012.93 1012.41 1011.84 1011.23 1010.59 1009.94 1009.33 1008.80 1008.40 1008.20 1008.22 1008.47 1008.95 1009.61 1010.39 1011.22 1012.01 1012.70 1013.23 1013.59 1013.78 1013.83 1013.81
1015.78 1016.34 1016.76 1017.00 1017.06 1016.95 1016.72 1016.42 1016.10 1015.81 1015.58 1015.39 1015.26 1015.14 1015.03 1014.88 1014.70 1014.47 1014.19 1013.86 1013.48 1013.05 1012.56 1012.01 1011.41 1010.76 1010.08 1009.43 1008.84 1008.38 1008.12 1008.08 1008.29 1008.75 1009.42 1010.23 1011.10 1011.95 1012.70 1013.28 1013.68 1013.89 1013.93 1013.87
1016.72 1017.20 1017.54 1017.69 1017.67 1017.50 1017.22 1016.87 1016.52 1016.20 1015.92 1015.69 1015.51 1015.34 1015.17 1014.99 1014.77 1014.51 1014.22 1013.90 1013.54 1013.14 1012.69 1012.18 1011.62 1010.99 1010.34 1009.68 1009.08 1008.59 1008.28 1008.19 1008.36 1008.77 1009.40 1010.19 1011.06 1011.92 1012.68 1013.29 1013.70 1013.92 1013.96 1013.88
1017.62 1018.00 1018.25 1018.33 1018.25 1018.05 1017.75 1017.40 1017.05 1016.72 1016.44 1016.19 1015.97 1015.76 1015.54 1015.30 1015.02 1014.72 1014.40 1014.06 1013.70 1013.31 1012.90 1012.44 1011.93 1011.35 1010.74 1010.11 1009.53 1009.03 1008.69 1008.56 1008.66 1008.99 1009.55 1010.26 1011.07 1011.88 1012.61 1013.21 1013.62 1013.84 1013.89 1013.81
1018.45 1018.75 1018.91 1018.94 1018.84 1018.64 1018.36 1018.06 1017.75 1017.47 1017.21 1016.98 1016.75 1016.50 1016.23 1015.92 1015.58 1015.21 1014.83 1014.44 1014.06 1013.68 1013.28 1012.86 1012.39 1011.87 1011.31 1010.74 1010.18 1009.68 1009.32 1009.13 1009.15 1009.39 1009.82 1010.42 1011.11 1011.82 1012.48 1013.03 1013.41 1013.63 1013.69 1013.63
1019.21 1019.43 1019.54 1019.55 1019.46 1019.30 1019.09 1018.87 1018.66 1018.46 1018.27 1018.07 1017.85 1017.59 1017.27 1016.90 1016.48 1016.03 1015.58 1015.12 1014.69 1014.28 1013.87 1013.47 1013.03 1012.56 1012.05 1011.51 1010.98 1010.50 1010.11 1009.86 1009.79 1009.90 1010.19 1010.63 1011.17 1011.75 1012.29 1012.76 1013.10 1013.30 1013.38 1013.35
1019.88 1020.04 1020.13 1020.14 1020.10 1020.02 1019.92 1019.82 1019.73 1019.64 1019.55 1019.41 1019.23 1018.96 1018.62 1018.19 1017.69 1017.16 1016.61 1016.07 1015.57 1015.10 1014.66 1014.24 1013.81 1013.37 1012.89 1012.39 1011.88 1011.40 1010.98 1010.67 1010.50 1010.49 1010.62 1010.89 1011.26 1011.67 1012.08 1012.44 1012.72 1012.90 1012.99 1013.01
1020.43 1020.57 1020.66 1020.71 1020.74 1020.76 1020.79 1020.84 1020.89 1020.93 1020.94 1020.89 1020.74 1020.49 1020.12 1019.65 1019.08 1018.46 1017.83 1017.20 1016.61 1016.06 1015.57 1015.11 1014.66 1014.21 1013.75 1013.27 1012.77 1012.29 1011.85 1011.49 1011.23 1011.10 1011.09 1011.19 1011.39 1011.64 1011.91 1012.16 1012.36 1012.51 1012.60 1012.66
1020.85 1020.99 1021.11 1021.21 1021.33 1021.47 1021.63 1021.81 1022.01 1022.17 1022.29 1022.31 1022.21 1021.98 1021.60 1021.08 1020.47 1019.77 1019.05 1018.34 1017.66 1017.04 1016.47 1015.96 1015.47 1015.00 1014.54 1014.06 1013.57 1013.10 1012.65 1012.25 1011.93 1011.71 1011.58 1011.55 1011.60 1011.71 1011.84 1011.98 1012.10 1012.21 1012.29 1012.36
1021.15 1021.30 1021.46 1021.63 1021.83 1022.07 1022.34 1022.65 1022.95 1023.21 1023.41 1023.49 1023.43 1023.21 1022.83 1022.29 1021.63 1020.89 1020.11 1019.33 1018.58 1017.89 1017.25 1016.68 1016.15 1015.66 1015.17 1014.70 1014.23 1013.76 1013.32 1012.92 1012.57 1012.30 1012.10 1011.98 1011.92 1011.92 1011.94 1011.98 1012.02 1012.07 1012.11 1012.18
1021.35 1021.53 1021.71 1021.93 1022.20 1022.51 1022.86 1023.24 1023.61 1023.93 1024.17 1024.28 1024.24 1024.03 1023.65 1023.10 1022.43 1021.67 1020.86 1020.04 1019.25 1018.50 1017.82 1017.20 1016.64 1016.12 1015.63 1015.16 1014.71 1014.27 1013.86 1013.48 1013.15 1012.88 1012.65 1012.49 1012.37 1012.29 1012.23 1012.19 1012.15 1012.13 1012.13 1012.15
1021.50 1021.69 1021.89 1022.14 1022.43 1022.77 1023.15 1023.55 1023.93 1024.26 1024.50 1024.61 1024.57 1024.35 1023.97 1023.44 1022.77 1022.02 1021.22 1020.40 1019.60 1018.84 1018.14 1017.50 1016.92 1016.39 1015.91 1015.46 1015.04 1014.65 1014.29 1013.97 1013.68 1013.44 1013.24 1013.07 1012.93 1012.81 1012.70 1012.59 1012.49 1012.40 1012.33 1012.28
1021.63 1021.81 1022.02 1022.26 1022.54 1022.87 1023.22 1023.59 1023.93 1024.22 1024.41 1024.49 1024.42 1024.20 1023.82 1023.31 1022.68 1021.97 1021.21 1020.44 1019.67 1018.94 1018.25 1017.62 1017.05 1016.53 1016.07 1015.65 1015.27 1014.94 1014.65 1014.40 1014.19 1014.00 1013.85 1013.71 1013.58 1013.45 1013.31 1013.16 1013.00 1012.84 1012.69 1012.56
1021.76 1021.93 1022.12 1022.33 1022.57 1022.83 1023.12 1023.41 1023.67 1023.88 1024.00 1024.01 1023.91 1023.67 1023.31 1022.83 1022.25 1021.61 1020.93 1020.23 1019.53 1018.86 1018.22 1017.63 1017.09 1016.61 1016.18 1015.80 1015.48 1015.21 1014.99 1014.81 1014.67 1014.55 1014.46 1014.36 1014.26 1014.14 1013.99 1013.81 1013.61 1013.39 1013.16 1012.95
1021.91 1022.06 1022.20 1022.36 1022.54 1022.73 1022.92 1023.11 1023.26 1023.36 1023.40 1023.34 1023.19 1022.94 1022.59 1022.16 1021.65 1021.10 1020.51 1019.91 1019.31 1018.72 1018.15 1017.62 1017.14 1016.70 1016.31 1015.98 1015.71 1015.49 1015.33 1015.21 1015.14 1015.08 1015.04 1014.99 1014.92 1014.81 1014.67 1014.47 1014.24 1013.98 1013.69 1013.41
1022.03 1022.16 1022.27 1022.38 1022.48 1022.59 1022.69 1022.77 1022.82 1022.82 1022.77 1022.65 1022.46 1022.20 1021.87 1021.49 1021.06 1020.60 1020.11 1019.61 1019.11 1018.62 1018.14 1017.67 1017.25 1016.85 1016.51 1016.22 1015.99 1015.81 1015.69 1015.62 1015.58 1015.57 1015.56 1015.54 1015.49 1015.41 1015.27 1015.07 1014.83 1014.55 1014.23 1013.91
1022.10 1022.21 1022.29 1022.35 1022.40 1022.44 1022.47 1022.47 1022.43 1022.36 1022.24 1022.07 1021.86 1021.60 1021.30 1020.97 1020.62 1020.24 1019.85 1019.45 1019.04 1018.63 1018.22 1017.82 1017.44 1017.09 1016.78 1016.52 1016.31 1016.15 1016.05 1016.00 1015.98 1015.99 1015.99 1015.99 1015.96 1015.88 1015.76 1015.58 1015.34 1015.06 1014.74 1014.41
1022.05 1022.15 1022.22 1022.27 1022.29 1022.29 1022.27 1022.23 1022.15 1022.04 1021.89 1021.71 1021.49 1021.25 1020.98 1020.70 1020.40 1020.09 1019.77 1019.44 1019.10 1018.75 1018.40 1018.04 1017.70 1017.38 1017.09 1016.84 1016.64 1016.49 1016.39 1016.34 1016.32 1016.32 1016.33 1016.33 1016.30 1016.24 1016.13 1015.97 1015.77 1015.51 1015.22 1014.91
1021.85 1021.95 1022.03 1022.08 1022.11 1022.11 1022.10 1022.05 1021.97 1021.86 1021.72 1021.55 1021.35 1021.14 1020.91 1020.66 1020.41 1020.14 1019.87 1019.58 1019.27 1018.96 1018.63 1018.30 1017.97 1017.66 1017.38 1017.13 1016.93 1016.77 1016.67 1016.60 1016.57 1016.57 1016.57 1016.56 1016.54 1016.50 1016.41 1016.29 1016.12 1015.92 1015.68 1015.40
1021.50 1021.61 1021.70 1021.77 1021.83 1021.87 1021.89 1021.88 1021.84 1021.78 1021.67 1021.55 1021.39 1021.21 1021.02 1020.80 1020.58 1020.33 1020.07 1019.79 1019.49 1019.18 1018.85 1018.52 1018.19 1017.88 1017.59 1017.34 1017.13 1016.98 1016.86 1016.79 1016.75 1016.73 1016.73 1016.73 1016.71 1016.69 1016.63 1016.55 1016.44 1016.29 1016.11 1015.90
1021.00 1021.11 1021.23 1021.33 1021.44 1021.53 1021.61 1021.67 1021.71 1021.71 1021.67 1021.61 1021.51 1021.37 1021.21 1021.02 1020.81 1020.56 1020.29 1020.00 1019.68 1019.35 1019.00 1018.65 1018.31 1017.98 1017.69 1017.44 1017.23 1017.08 1016.97 1016.90 1016.86 1016.84 1016.84 1016.85 1016.86 1016.85 1016.83 1016.80 1016.74 1016.65 1016.53 1016.38
1020.42 1020.52 1020.65 1020.79 1020.94 1021.09 1021.25 1021.39 1021.50 1021.59 1021.63 1021.64 1021.60 1021.51 1021.39 1021.21 1021.00 1020.75 1020.46 1020.14 1019.79 1019.42 1019.04 1018.66 1018.30 1017.97 1017.67 1017.43 1017.23 1017.09 1016.99 1016.94 1016.92 1016.92 1016.94 1016.96 1016.99 1017.02 1017.03 1017.04 1017.03 1016.99 1016.93 1016.83
1019.82 1019.90 1020.01 1020.17 1020.36 1020.57 1020.79 1021.01 1021.21 1021.37 1021.50 1021.57 1021.59 1021.55 1021.46 1021.31 1021.09 1020.83 1020.52 1020.17 1019.79 1019.38 1018.97 1018.57 1018.20 1017.86 1017.57 1017.34 1017.16 1017.04 1016.97 1016.95 1016.96 1016.99 1017.03 1017.08 1017.13 1017.18 1017.23 1017.27 1017.29 1017.30 1017.28 1017.23
1019.24 1019.28 1019.38 1019.54 1019.75 1020.01 1020.28 1020.56 1020.82 1021.06 1021.25 1021.39 1021.46 1021.47 1021.40 1021.27 1021.06 1020.79 1020.47 1020.10 1019.69 1019.27 1018.84 1018.42 1018.04 1017.70 1017.42 1017.20 1017.05 1016.96 1016.93 1016.94 1016.99 1017.05 1017.12 1017.20 1017.27 1017.35 1017.41 1017.47 1017.52 1017.55 1017.56 1017.55
Thickness
5773 5766 5753 5754 5756 5754 5752 5748 5745 5748 5753 5749 5744 5741 5741 5744 5745 5746 5750 5754 5757 5760 5767 5773 5777 5782 5785 5788 5790 5791 5788 5786 5780 5774 5767 5762 5758 5757 5755 5753 5752 5750 5749 5748
5761 5746 5748 5752 5750 5747 5743 5738 5738 5739 5740 5739 5734 5731 5731 5731 5731 5731 5735 5739 5744 5747 5756 5761 5766 5772 5776 5781 5784 5787 5786 5783 5778 5772 5767 5761 5756 5752 5749 5746 5746 5745 5745 5744
5742 5736 5744 5740 5735 5732 5730 5724 5722 5721 5725 5728 5723 5720 5720 5721 5723 5723 5725 5728 5732 5735 5741 5748 5754 5760 5766 5771 5776 5780 5782 5780 5776 5769 5761 5755 5749 5744 5739 5738 5738 5739 5739 5739
5735 5733 5732 5726 5718 5717 5714 5713 5710 5709 5708 5711 5712 5703 5711 5710 5709 5709 5711 5715 5719 5724 5731 5736 5742 5748 5754 5762 5769 5773 5776 5774 5771 5764 5756 5749 5741 5735 5731 5730 5731 5732 5733 5734
5719 5719 5716 5707 5702 5702 5699 5702 5700 5699 5698 5698 5702 5693 5700 5697 5689 5691 5697 5702 5708 5713 5719 5725 5731 5736 5743 5750 5757 5763 5765 5763 5761 5756 5750 5743 5735 5729 5724 5722 5721 5722 5725 5728
5715 5714 5706 5697 5698 5694 5693 5693 5693 5691 5689 5677 5690 5686 5675 5668 5667 5674 5682 5690 5696 5702 5708 5713 5719 5724 5729 5736 5742 5747 5749 5747 5746 5743 5739 5735 5729 5722 5717 5714 5712 5712 5716 5720
5703 5697 5695 5692 5684 5682 5678 5670 5665 5663 5662 5667 5679 5670 5647 5650 5657 5661 5668 5676 5683 5690 5695 5700 5705 5709 5713 5718 5724 5729 5731 5731 5732 5730 5728 5725 5721 5717 5712 5709 5707 5707 5709 5712
5689 5680 5676 5674 5665 5658 5657 5650 5635 5630 5638 5645 5654 5645 5632 5643 5649 5654 5660 5665 5671 5678 5683 5687 5692 5695 5699 5703 5708 5712 5715 5717 5717 5717 5716 5715 5712 5709 5706 5704 5704 5705 5706 5709
5681 5669 5669 5662 5658 5651 5642 5636 5631 5623 5629 5628 5635 5630 5629 5637 5638 5643 5648 5654 5660 5667 5672 5677 5681 5684 5686 5690 5694 5698 5701 5703 5704 5705 5705 5704 5702 5702 5701 5700 5701 5702 5704 5705
5678 5664 5658 5654 5652 5642 5633 5625 5622 5614 5608 5612 5619 5614 5604 5613 5618 5627 5634 5639 5647 5655 5662 5667 5671 5673 5676 5679 5683 5687 5689 5691 5692 5693 5694 5695 5695 5695 5696 5696 5696 5698 5701 5701
5675 5664 5651 5645 5629 5619 5618 5613 5609 5609 5607 5601 5600 5594 5595 5598 5605 5612 5620 5627 5635 5644 5651 5657 5661 5665 5668 5671 5675 5677 5679 5682 5683 5684 5686 5687 5688 5689 5690 5691 5692 5694 5697 5698
5668 5663 5648 5634 5627 5622 5612 5602 5600 5598 5600 5601 5592 5585 5591 5595 5601 5607 5613 5620 5627 5636 5643 5649 5652 5655 5659 5662 5666 5669 5672 5674 5676 5678 5680 5680 5682 5683 5685 5686 5688 5691 5692 5693
5667 5659 5648 5637 5627 5619 5607 5604 5605 5602 5599 5594 5588 5583 5593 5596 5601 5606 5610 5615 5623 5631 5636 5641 5645 5647 5651 5655 5659 5663 5665 5668 5671 5673 5674 5676 5677 5679 5680 5682 5684 5686 5686 5686
5667 5655 5643 5626 5614 5607 5603 5604 5608 5605 5597 5590 5586 5585 5591 5595 5598 5604 5609 5614 5620 5627 5631 5635 5638 5642 5645 5650 5654 5657 5660 5663 5666 5668 5669 5670 5671 5672 5674 5676 5678 5680 5681 5680
5669 5652 5640 5629 5621 5615 5608 5606 5607 5604 5599 5594 5591 5591 5592 5597 5600 5606 5611 5617 5622 5626 5630 5633 5636 5639 5643 5646 5649 5652 5655 5658 5661 5662 5663 5664 5666 5667 5669 5670 5672 5673 5673 5674
5666 5653 5643 5631 5625 5621 5615 5611 5609 5605 5603 5602 5602 5599 5604 5607 5611 5614 5617 5620 5624 5627 5631 5634 5637 5639 5641 5644 5646 5649 5652 5654 5656 5656 5656 5658 5660 5661 5661 5663 5664 5665 5664 5665
5664 5657 5648 5641 5632 5627 5620 5614 5612 5610 5609 5609 5606 5606 5612 5615 5617 5619 5621 5625 5627 5629 5633 5635 5638 5640 5642 5643 5645 5647 5649 5651 5652 5652 5652 5653 5654 5654 5655 5656 5656 5656 5656 5657
5665 5658 5652 5645 5637 5626 5627 5625 5618 5616 5616 5616 5615 5616 5618 5620 5624 5628 5628 5629 5632 5633 5636 5638 5640 5642 5644 5646 5646 5647 5648 5648 5648 5647 5647 5647 5647 5647 5647 5647 5647 5648 5649 5649
5667 5660 5654 5650 5644 5636 5630 5629 5625 5623 5624 5624 5622 5623 5627 5631 5635 5637 5635 5633 5634 5636 5638 5640 5641 5644 5646 5646 5647 5648 5647 5645 5643 5642 5641 5641 5640 5639 5639 5639 5638 5639 5641 5642
5663 5662 5659 5652 5648 5639 5642 5640 5634 5628 5629 5631 5628 5628 5630 5636 5639 5636 5636 5636 5638 5639 5640 5641 5644 5646 5646 5645 5646 5646 5644 5642 5639 5637 5636 5635 5634 5633 5632 5631 5631 5632 5633 5633
5668 5664 5660 5656 5654 5653 5649 5641 5634 5630 5636 5635 5634 5632 5632 5633 5633 5634 5637 5639 5640 5641 5642 5643 5645 5645 5645 5645 5645 5644 5641 5638 5635 5634 5633 5631 5629 5627 5625 5624 5624 5624 5625 5625
5677 5670 5665 5660 5655 5653 5652 5643 5640 5646 5643 5639 5637 5635 5634 5634 5636 5638 5639 5641 5642 5643 5643 5644 5644 5645 5645 5644 5644 5641 5637 5635 5633 5631 5629 5626 5624 5622 5620 5619 5618 5618 5618 5619
5680 5679 5676 5670 5668 5663 5658 5655 5652 5649 5645 5642 5640 5638 5636 5636 5638 5639 5641 5644 5645 5645 5645 5645 5645 5646 5647 5646 5643 5641 5637 5635 5633 5630 5627 5625 5622 5619 5617 5615 5614 5613 5613 5613
5687 5679 5674 5671 5671 5665 5660 5657 5653 5650 5647 5644 5642 5640 5639 5639 5641 5642 5644 5646 5647 5647 5647 5647 5648 5648 5649 5647 5645 5642 5639 5636 5635 5631 5629 5626 5623 5619 5616 5612 5611 5609 5608 5607
5694 5682 5679 5677 5677 5668 5663 5660 5657 5652 5649 5646 5644 5643 5642 5641 5642 5644 5646 5647 5648 5649 5650 5650 5650 5650 5651 5650 5648 5646 5642 5640 5637 5635 5631 5628 5623 5619 5616 5611 5606 5605 5602 5599
5699 5692 5687 5688 5688 5680 5675 5669 5662 5654 5650 5648 5645 5645 5645 5644 5643 5645 5647 5649 5650 5651 5652 5653 5653 5654 5654 5654 5652 5650 5646 5643 5641 5637 5633 5630 5626 5621 5618 5615 5610 5601 5600 5597